GW5264 Weather Reports


time (UTC)temp
C
wind
direction
speed
KPH
gust
KPH
rain 1hr
cm
rain 24hr
cm
rain mn
cm
humidity
%
barometer
mb
20260508111236 3 20 0.0 1.6 0.00 0.00 0.00 99 1019.5
20260508110733 3 20 0.0 1.6 0.00 0.00 0.00 99 1019.5
20260508110230 3 20 0.0 1.6 0.00 0.00 0.00 99 1019.6
20260508105729 3 20 1.6 3.2 0.00 0.00 0.00 99 1019.6
20260508105226 3 20 0.0 1.6 0.00 0.00 0.00 99 1019.4
20260508104723 3 20 0.0 0.0 0.00 0.00 0.00 99 1019.5
20260508104220 3 20 0.0 0.0 0.00 0.00 0.00 99 1019.4
20260508103718 3 20 0.0 3.2 0.00 0.00 0.00 99 1019.3
20260508103215 3 20 0.0 3.2 0.00 0.00 0.00 99 1019.3
20260508102712 3 20 0.0 1.6 0.00 0.00 0.00 99 1019.3
20260508102210 3 20 0.0 1.6 0.00 0.00 0.00 99 1019.4
20260508101707 3 20 0.0 0.0 0.00 0.00 0.00 99 1019.2
20260508101205 3 20 0.0 1.6 0.00 0.00 0.00 99 1019.1
20260508100702 3 20 1.6 1.6 0.00 0.00 0.00 99 1019.1
20260508100200 3 20 0.0 1.6 0.00 0.00 0.00 99 1019.1
20260508095656 3 20 0.0 3.2 0.00 0.00 0.00 99 1019.0
20260508095153 3 49 0.0 1.6 0.00 0.00 0.00 99 1018.9
20260508094649 3 49 3.2 4.8 0.00 0.00 0.00 99 1018.9
20260508094147 3 49 4.8 4.8 0.00 0.00 0.00 99 1018.9
20260508093644 3 5 0.0 1.6 0.00 0.00 0.00 99 1018.8
20260508093141 3 5 0.0 3.2 0.00 0.00 0.00 99 1018.8
20260508092638 3 5 0.0 3.2 0.00 0.00 0.00 99 1018.9
20260508092137 3 36 0.0 1.6 0.00 0.00 0.00 99 1018.5
20260508091634 3 36 0.0 3.2 0.00 0.00 0.00 99 1018.7
20260508091131 3 19 3.2 4.8 0.00 0.00 0.00 99 1018.6
20260508090629 3 20 1.6 3.2 0.00 0.00 0.00 99 1018.6
20260508090126 4 20 0.0 1.6 0.00 0.00 0.00 99 1018.6
20260508085622 3 20 0.0 1.6 0.00 0.00 0.00 99 1018.6
20260508085119 3 20 0.0 0.0 0.00 0.00 0.00 99 1018.7
20260508084615 3 20 0.0 1.6 0.00 0.00 0.00 99 1018.5
20260508084113 3 20 0.0 3.2 0.00 0.00 0.00 99 1018.5
20260508083610 3 20 1.6 3.2 0.00 0.00 0.00 99 1018.6
20260508083107 4 20 0.0 1.6 0.00 0.00 0.00 99 1018.6
20260508082603 3 20 1.6 1.6 0.00 0.00 0.00 99 1018.6
20260508082100 4 20 1.6 3.2 0.00 0.00 0.00 99 1018.6
20260508081558 4 20 0.0 1.6 0.00 0.00 0.00 99 1018.7
20260508081053 4 20 0.0 0.0 0.00 0.00 0.00 99 1018.5
20260508080551 4 20 0.0 1.6 0.00 0.00 0.00 99 1018.6
20260508080049 4 20 0.0 1.6 0.00 0.00 0.00 98 1018.7
20260508075545 4 20 0.0 0.0 0.00 0.00 0.00 98 1018.2
20260508075043 3 20 0.0 0.0 0.00 0.00 0.00 98 1018.4
20260508074540 3 20 0.0 0.0 0.00 0.00 0.00 99 1018.3
20260508074037 3 20 0.0 0.0 0.00 0.00 0.00 99 1018.4
20260508073534 3 20 0.0 0.0 0.00 0.00 0.00 99 1018.3
20260508073032 3 20 0.0 0.0 0.00 0.00 0.00 99 1018.1
20260508072527 3 20 0.0 0.0 0.00 0.00 0.00 99 1018.2
20260508072025 3 20 0.0 0.0 0.00 0.00 0.00 99 1018.2
20260508071523 3 20 0.0 0.0 0.00 0.00 0.00 99 1018.0
20260508071020 3 20 0.0 0.0 0.00 0.00 0.00 99 1018.1
20260508070518 3 20 0.0 0.0 0.00 0.00 0.00 99 1018.4
20260508070016 3 20 0.0 0.0 0.00 0.00 0.00 99 1018.3
20260508065513 3 20 0.0 0.0 0.00 0.00 0.00 99 1018.4
20260508065011 4 20 0.0 0.0 0.00 0.00 0.00 99 1018.5
20260508064509 4 20 0.0 0.0 0.00 0.00 0.00 99 1018.1
20260508064006 4 20 0.0 0.0 0.00 0.00 0.00 99 1018.4
20260508063503 4 20 0.0 0.0 0.00 0.00 0.00 99 1018.4
20260508063001 4 20 0.0 0.0 0.00 0.00 0.00 99 1018.5
20260508062459 4 20 0.0 0.0 0.00 0.00 0.00 99 1018.6
20260508061955 4 20 0.0 0.0 0.00 0.00 0.00 99 1018.6
20260508061453 4 20 0.0 0.0 0.00 0.00 0.00 99 1018.5
20260508060949 4 20 0.0 0.0 0.00 0.00 0.00 99 1018.3
20260508060447 4 20 0.0 0.0 0.00 0.00 0.00 99 1018.2
20260508055943 4 20 0.0 0.0 0.00 0.00 0.00 99 1018.5
20260508055440 4 20 0.0 0.0 0.00 0.00 0.00 99 1018.5
20260508054936 4 20 0.0 0.0 0.00 0.00 0.00 99 1018.4
20260508054433 4 20 0.0 0.0 0.00 0.00 0.00 99 1018.3
20260508053930 4 20 0.0 0.0 0.00 0.00 0.00 99 1018.3
20260508053427 4 20 0.0 0.0 0.00 0.00 0.00 99 1018.2
20260508052925 5 20 0.0 0.0 0.00 0.00 0.00 99 1018.4
20260508052422 5 20 0.0 0.0 0.00 0.00 0.00 99 1018.1
20260508051918 5 20 0.0 0.0 0.00 0.00 0.00 99 1018.2
20260508051414 5 20 0.0 0.0 0.00 0.00 0.00 99 1018.3
20260508050910 5 20 0.0 0.0 0.00 0.00 0.00 99 1018.1
20260508050407 5 20 0.0 0.0 0.00 0.00 0.00 99 1018.1
20260508045903 5 20 0.0 0.0 0.00 0.00 0.00 98 1018.2
20260508045401 5 20 0.0 0.0 0.00 0.00 0.00 98 1018.3
20260508044858 5 20 0.0 0.0 0.00 0.00 0.00 98 1018.1
20260508044355 5 20 0.0 0.0 0.00 0.00 0.00 98 1018.2
20260508043850 5 20 0.0 0.0 0.00 0.00 0.00 98 1018.2
20260508043348 5 20 0.0 0.0 0.00 0.00 0.00 98 1018.1
20260508042844 5 20 0.0 0.0 0.00 0.00 0.00 98 1018.3
20260508042342 5 20 0.0 0.0 0.00 0.00 0.00 97 1018.0
20260508041839 5 20 0.0 0.0 0.00 0.00 0.00 97 1018.2
20260508041335 5 20 0.0 0.0 0.00 0.00 0.00 97 1017.9
20260508040832 5 20 0.0 0.0 0.00 0.00 0.00 97 1018.0
20260508040329 5 20 0.0 0.0 0.00 0.00 0.00 98 1018.0
20260508035826 5 20 0.0 0.0 0.00 0.03 0.03 98 1018.0
20260508035324 5 20 0.0 0.0 0.00 0.03 0.03 98 1017.9
20260508034820 5 20 0.0 0.0 0.00 0.03 0.03 98 1018.0
20260508034318 5 20 0.0 0.0 0.00 0.03 0.03 98 1018.0
20260508033814 6 20 1.6 1.6 0.00 0.03 0.03 97 1017.7
20260508033313 6 20 0.0 0.0 0.00 0.03 0.03 97 1017.8
20260508032810 6 20 0.0 0.0 0.00 0.03 0.03 97 1017.8
20260508032307 6 20 0.0 0.0 0.00 0.03 0.03 97 1017.7
20260508031804 6 20 0.0 0.0 0.00 0.03 0.03 97 1017.7
20260508031300 6 20 0.0 0.0 0.00 0.03 0.03 97 1017.7
20260508030757 6 20 0.0 0.0 0.00 0.03 0.03 96 1017.5
20260508030254 6 20 0.0 0.0 0.00 0.03 0.03 96 1017.3
20260508025751 6 20 0.0 0.0 0.00 0.03 0.03 96 1017.2
20260508025248 6 20 0.0 0.0 0.00 0.03 0.03 95 1017.2
20260508024744 6 20 0.0 0.0 0.00 0.03 0.03 95 1017.3
20260508024241 6 20 0.0 0.0 0.00 0.03 0.03 95 1017.3
20260508023738 7 20 0.0 0.0 0.00 0.03 0.03 95 1017.0
20260508023235 7 20 0.0 0.0 0.00 0.03 0.03 95 1017.0
20260508022731 7 20 0.0 0.0 0.00 0.03 0.03 94 1016.9
20260508022227 7 20 0.0 0.0 0.00 0.03 0.03 94 1017.0
20260508021724 7 20 0.0 0.0 0.00 0.03 0.03 94 1016.8
20260508021220 7 20 0.0 0.0 0.00 0.03 0.03 94 1016.8
20260508020717 7 20 0.0 0.0 0.00 0.03 0.03 94 1016.6
20260508020214 7 20 0.0 0.0 0.00 0.03 0.03 94 1016.4
20260508015712 7 20 0.0 0.0 0.00 0.03 0.03 94 1016.4
20260508015209 8 20 0.0 0.0 0.00 0.03 0.03 93 1016.1
20260508014705 8 20 0.0 0.0 0.00 0.03 0.03 92 1016.3
20260508014201 8 20 0.0 0.0 0.00 0.03 0.03 92 1016.2
20260508013658 8 20 0.0 0.0 0.00 0.03 0.03 91 1016.1
20260508013154 8 20 0.0 1.6 0.00 0.03 0.03 92 1016.0
20260508012652 8 20 0.0 0.0 0.00 0.03 0.03 91 1015.7
20260508012149 8 20 0.0 0.0 0.00 0.03 0.03 90 1015.9
20260508011647 8 20 0.0 0.0 0.00 0.03 0.03 90 1015.8
20260508011144 9 20 1.6 1.6 0.00 0.03 0.03 89 1015.6
20260508010641 9 20 0.0 0.0 0.00 0.03 0.03 89 1015.6
20260508010139 9 20 0.0 0.0 0.00 0.03 0.03 89 1015.3
20260508005636 10 20 0.0 0.0 0.00 0.03 0.03 87 1015.4
20260508005132 10 20 0.0 0.0 0.00 0.03 0.03 86 1015.5
20260508004628 10 20 0.0 1.6 0.00 0.03 0.03 86 1015.2
20260508004125 10 20 1.6 3.2 0.00 0.03 0.03 86 1015.4
20260508003621 10 20 0.0 3.2 0.00 0.03 0.03 84 1015.2
20260508003119 11 20 1.6 3.2 0.00 0.03 0.03 85 1015.1
20260508002615 11 20 0.0 0.0 0.00 0.03 0.03 84 1015.2
20260508002113 11 20 1.6 3.2 0.00 0.03 0.03 84 1015.0
20260508001608 11 20 0.0 1.6 0.00 0.03 0.03 82 1015.0
20260508001104 11 20 1.6 3.2 0.00 0.03 0.03 76 1014.8
20260508000600 12 20 1.6 1.6 0.00 0.03 0.03 82 1014.8
20260508000058 12 20 0.0 3.2 0.00 0.03 0.03 79 1014.5
20260507235554 12 20 0.0 1.6 0.00 0.03 0.03 82 1014.4
20260507235052 12 346 3.2 3.2 0.00 0.03 0.03 80 1014.7
20260507234548 13 346 1.6 1.6 0.00 0.03 0.03 78 1014.5
20260507234044 13 65 8.0 9.7 0.00 0.03 0.03 65 1014.4
20260507233541 13 96 0.0 9.7 0.00 0.03 0.03 72 1014.1
20260507233040 14 10 0.0 4.8 0.00 0.03 0.03 71 1014.3
20260507232536 14 109 6.4 11.3 0.00 0.03 0.03 58 1014.3
20260507232033 15 69 0.0 4.8 0.00 0.03 0.03 46 1014.2
20260507231530 15 37 1.6 11.3 0.00 0.03 0.03 46 1014.3
20260507231027 15 10 0.0 1.6 0.00 0.03 0.03 60 1014.4
20260507230524 15 32 1.6 3.2 0.00 0.03 0.03 68 1014.1
20260507230020 15 32 0.0 4.8 0.00 0.03 0.03 65 1014.1
20260507225515 16 30 1.6 1.6 0.00 0.03 0.03 62 1014.1
20260507225012 16 356 0.0 3.2 0.00 0.03 0.03 63 1014.0
20260507224508 16 328 0.0 1.6 0.00 0.03 0.03 57 1014.1
20260507224004 16 10 1.6 1.6 0.00 0.03 0.03 53 1013.9
20260507223500 16 32 1.6 6.4 0.00 0.03 0.03 56 1014.0
20260507222958 16 55 1.6 1.6 0.00 0.03 0.03 60 1014.1
20260507222455 17 9 1.6 3.2 0.00 0.03 0.03 59 1013.9
20260507221951 17 50 3.2 4.8 0.00 0.03 0.03 43 1013.9
20260507221448 17 71 3.2 3.2 0.00 0.03 0.03 47 1014.1
20260507220944 16 143 3.2 4.8 0.00 0.03 0.03 45 1013.9
20260507220442 17 174 8.0 9.7 0.00 0.03 0.03 43 1014.0
20260507215938 17 313 3.2 6.4 0.00 0.03 0.03 41 1013.7
20260507215435 17 191 6.4 11.3 0.00 0.03 0.03 44 1013.8
20260507214932 16 50 1.6 9.7 0.00 0.03 0.03 48 1013.8
20260507214430 17 45 1.6 1.6 0.00 0.03 0.03 51 1013.7
20260507213925 17 80 1.6 1.6 0.00 0.03 0.03 50 1013.5
20260507213422 18 57 0.0 6.4 0.00 0.03 0.03 42 1013.5
20260507212919 18 171 9.7 11.3 0.00 0.03 0.03 43 1013.2
20260507212409 18 186 3.2 12.9 0.00 0.03 0.03 41 1013.2
20260507211906 19 244 3.2 6.4 0.00 0.03 0.03 41 1013.3
20260507211403 17 235 1.6 4.8 0.00 0.03 0.03 47 1013.2
20260507210900 16 179 6.4 14.5 0.00 0.03 0.03 43 1013.1
20260507210356 17 161 3.2 11.3 0.00 0.03 0.03 45 1013.2
20260507205852 17 178 9.7 12.9 0.00 0.03 0.03 46 1013.2
20260507205349 17 179 1.6 9.7 0.00 0.03 0.03 45 1013.0
20260507204846 17 211 14.5 17.7 0.00 0.03 0.03 44 1013.3
20260507204343 16 164 8.0 11.3 0.00 0.03 0.03 46 1013.0
20260507203841 17 239 3.2 3.2 0.00 0.03 0.03 46 1013.0
20260507203339 17 219 4.8 9.7 0.00 0.03 0.03 47 1013.3
20260507202834 18 198 6.4 9.7 0.00 0.03 0.03 44 1013.3
20260507202331 17 237 3.2 3.2 0.00 0.03 0.03 45 1013.1
20260507201827 16 152 1.6 4.8 0.00 0.03 0.03 49 1013.2
20260507201323 16 194 6.4 14.5 0.00 0.03 0.03 47 1013.4
20260507200819 16 182 6.4 11.3 0.00 0.03 0.03 48 1013.3
20260507200315 17 209 4.8 4.8 0.00 0.03 0.03 46 1013.4
20260507195811 17 180 3.2 16.1 0.00 0.03 0.03 47 1013.5
20260507195309 17 168 0.0 6.4 0.00 0.03 0.03 43 1013.4
20260507194806 16 186 6.4 9.7 0.00 0.03 0.03 48 1013.8
20260507194302 16 171 4.8 14.5 0.00 0.03 0.03 54 1013.6
20260507193759 16 165 3.2 6.4 0.00 0.03 0.03 58 1013.7
20260507193256 16 147 4.8 9.7 0.00 0.03 0.03 55 1013.8
20260507192751 16 140 0.0 4.8 0.00 0.03 0.03 52 1013.9
20260507192248 16 82 0.0 9.7 0.00 0.03 0.03 51 1013.8
20260507191744 16 195 8.0 9.7 0.00 0.03 0.03 51 1013.9
20260507191241 16 198 8.0 11.3 0.00 0.03 0.03 52 1014.1
20260507190738 15 117 1.6 4.8 0.00 0.03 0.03 55 1014.1
20260507190237 16 251 3.2 9.7 0.00 0.03 0.03 55 1014.2
20260507185735 16 196 6.4 6.4 0.00 0.03 0.03 53 1014.2
20260507185232 16 237 3.2 9.7 0.00 0.03 0.03 57 1014.3
20260507184729 16 156 1.6 4.8 0.00 0.03 0.03 59 1014.1
20260507184227 16 233 4.8 6.4 0.00 0.03 0.03 51 1014.2
20260507183723 17 205 4.8 4.8 0.00 0.03 0.03 51 1014.1
20260507183220 17 183 4.8 9.7 0.00 0.03 0.03 49 1014.1
20260507182718 16 190 3.2 6.4 0.00 0.03 0.03 59 1014.1
20260507182213 16 52 0.0 9.7 0.00 0.03 0.03 56 1014.3
20260507181710 15 123 0.0 1.6 0.00 0.03 0.03 59 1014.3
20260507181206 15 35 1.6 3.2 0.00 0.03 0.03 58 1014.6
20260507180702 16 328 4.8 6.4 0.00 0.03 0.03 53 1014.3
20260507180159 16 239 3.2 4.8 0.00 0.03 0.03 55 1014.3
20260507175655 16 254 4.8 6.4 0.00 0.03 0.03 55 1014.4
20260507175152 16 203 4.8 11.3 0.00 0.03 0.03 55 1014.6
20260507174649 17 193 3.2 4.8 0.00 0.03 0.03 48 1014.6
20260507174148 16 251 3.2 3.2 0.00 0.03 0.03 49 1014.6
20260507173644 16 180 0.0 6.4 0.00 0.03 0.03 52 1014.3
20260507173141 16 178 0.0 6.4 0.00 0.03 0.03 56 1014.5
20260507172637 16 210 6.4 6.4 0.00 0.03 0.03 51 1014.5
20260507172135 16 263 3.2 6.4 0.00 0.03 0.03 52 1014.6
20260507171635 15 198 1.6 3.2 0.00 0.03 0.03 61 1014.8
20260507171133 16 196 4.8 9.7 0.00 0.03 0.03 56 1014.8
20260507170630 16 214 0.0 3.2 0.00 0.03 0.03 50 1014.9
20260507170127 16 259 3.2 4.8 0.00 0.03 0.03 50 1015.1
20260507165622 16 185 4.8 6.4 0.00 0.03 0.03 52 1014.9
20260507165119 15 73 1.6 4.8 0.00 0.03 0.03 68 1015.0
20260507164615 16 231 6.4 9.7 0.00 0.03 0.03 52 1015.1
20260507164112 15 310 0.0 4.8 0.00 0.03 0.03 51 1015.1
20260507163609 15 310 0.0 4.8 0.00 0.03 0.03 59 1015.3
20260507163108 14 233 1.6 3.2 0.00 0.03 0.03 58 1015.3
20260507162607 14 290 3.2 4.8 0.00 0.03 0.03 56 1015.3
20260507162105 14 60 3.2 4.8 0.00 0.03 0.03 54 1015.4
20260507161600 14 267 3.2 3.2 0.00 0.03 0.03 55 1015.4
20260507161057 14 308 4.8 4.8 0.00 0.03 0.03 57 1015.3
20260507160554 15 236 1.6 3.2 0.00 0.03 0.03 56 1015.4
20260507160050 14 261 1.6 3.2 0.00 0.03 0.03 52 1015.4
20260507155545 15 296 1.6 3.2 0.00 0.03 0.03 58 1015.5
20260507155043 14 296 0.0 3.2 0.00 0.03 0.03 59 1015.4
20260507154540 14 275 4.8 6.4 0.00 0.03 0.03 54 1015.6
20260507154037 14 295 3.2 4.8 0.00 0.03 0.03 55 1015.4
20260507153534 14 85 1.6 4.8 0.00 0.03 0.03 57 1015.5
20260507153030 14 245 1.6 3.2 0.00 0.03 0.03 65 1015.4
20260507152525 15 61 0.0 1.6 0.00 0.03 0.03 51 1015.4
20260507152022 15 230 3.2 3.2 0.00 0.03 0.03 57 1015.4
20260507151518 14 312 1.6 3.2 0.00 0.03 0.03 59 1015.5
20260507151015 13 312 0.0 1.6 0.00 0.03 0.03 61 1015.7
20260507150512 13 287 1.6 1.6 0.00 0.03 0.03 62 1015.7
20260507150009 13 287 3.2 4.8 0.00 0.03 0.03 66 1015.7
20260507145504 13 287 4.8 6.4 0.00 0.03 0.03 65 1015.6
20260507145002 13 264 3.2 6.4 0.00 0.03 0.03 66 1015.6
20260507144458 13 323 1.6 4.8 0.00 0.03 0.03 70 1015.9
20260507143955 13 298 1.6 3.2 0.00 0.03 0.03 79 1015.9
20260507143453 13 344 1.6 3.2 0.00 0.03 0.03 80 1015.7
20260507142949 13 344 3.2 3.2 0.00 0.03 0.03 73 1016.0
20260507142445 13 344 0.0 0.0 0.00 0.03 0.03 72 1015.8
20260507141943 12 344 0.0 0.0 0.00 0.03 0.03 84 1015.9
20260507141438 12 344 0.0 1.6 0.00 0.03 0.03 84 1016.0
20260507140935 12 344 1.6 1.6 0.00 0.03 0.03 85 1016.3
20260507140432 12 344 0.0 0.0 0.00 0.03 0.03 85 1016.1
20260507135930 12 344 0.0 1.6 0.00 0.03 0.03 88 1016.2
20260507135426 12 344 0.0 0.0 0.00 0.03 0.03 89 1016.6
20260507134924 12 344 0.0 0.0 0.00 0.03 0.03 88 1016.4
20260507134420 11 344 0.0 1.6 0.00 0.03 0.03 89 1016.7
20260507133916 11 344 0.0 0.0 0.00 0.03 0.03 91 1016.6
20260507133412 11 344 0.0 0.0 0.00 0.03 0.03 92 1016.7
20260507132911 11 344 0.0 0.0 0.00 0.03 0.03 89 1016.6
20260507132407 11 344 0.0 1.6 0.00 0.03 0.03 93 1016.7
20260507131905 11 344 1.6 1.6 0.00 0.03 0.03 92 1016.4
20260507131400 11 344 0.0 0.0 0.00 0.03 0.03 92 1016.6
20260507130857 11 344 0.0 0.0 0.00 0.03 0.03 96 1016.4
20260507130354 11 344 0.0 0.0 0.00 0.03 0.03 94 1016.7
20260507125853 11 344 0.0 0.0 0.00 0.03 0.03 95 1016.6
20260507125350 11 344 0.0 0.0 0.00 0.03 0.03 98 1016.3
20260507124848 11 344 0.0 0.0 0.00 0.03 0.03 99 1016.3
20260507124344 11 344 0.0 0.0 0.00 0.03 0.03 99 1016.4
20260507123843 10 344 0.0 0.0 0.00 0.03 0.03 99 1016.6
20260507123339 10 344 0.0 0.0 0.00 0.03 0.03 99 1016.6
20260507122835 10 344 0.0 0.0 0.00 0.03 0.03 99 1016.7
20260507122331 10 344 0.0 0.0 0.00 0.03 0.03 99 1016.6
20260507121828 10 344 0.0 0.0 0.00 0.03 0.03 99 1016.6
20260507121323 10 345 0.0 0.0 0.00 0.03 0.03 99 1016.6
20260507120820 10 345 0.0 0.0 0.00 0.03 0.03 99 1016.6
20260507120316 9 345 0.0 0.0 0.00 0.03 0.03 99 1016.6
20260507115812 9 345 0.0 0.0 0.00 0.03 0.03 99 1016.4
20260507115308 10 345 0.0 0.0 0.00 0.03 0.03 99 1016.6
20260507114804 10 345 0.0 0.0 0.00 0.03 0.03 99 1016.6
20260507114301 9 345 0.0 0.0 0.00 0.03 0.03 99 1016.6
20260507113759 9 345 0.0 0.0 0.00 0.03 0.03 99 1016.7
20260507113256 10 345 0.0 0.0 0.00 0.03 0.03 99 1016.4
20260507112753 10 345 0.0 0.0 0.00 0.03 0.03 99 1016.3
20260507112250 10 345 0.0 0.0 0.00 0.03 0.03 99 1016.3
20260507111748 9 345 0.0 0.0 0.00 0.03 0.03 99 1016.3